When you browse on this site, cookies collect data to enhance your experience and personalize the content and advertising you see.
Visit our Privacy Policy to learn more. By continuing to use the site, you agree to this use of cookies and data.
  • In Hungary
  • List of Countries
  • For 7 days
  • Water Temperature
  • Weather Map
  • News
  • Weather Widgets
  • user-avatar
    Login

    Hourly Weather Suhoe

    Today, 20 January, Monday

    Time Temperature Precipitation Wind Pressure Humidity
    00:00 -26°C° 0 mm 3 mps 751 mmHg 95%
    01:00 -27°C° 0 mm 3 mps 752 mmHg 96%
    02:00 -27°C° 0 mm 2 mps 753 mmHg 96%
    03:00 -27°C° 0 mm 2 mps 753 mmHg 96%
    04:00 -28°C° 0 mm 2 mps 754 mmHg 96%
    05:00 -30°C° 0 mm 3 mps 755 mmHg 95%
    06:00 -30°C° 0 mm 3 mps 754 mmHg 94%
    07:00 -30°C° 0 mm 3 mps 754 mmHg 92%
    08:00 -30°C° 0 mm 3 mps 754 mmHg 91%
    09:00 -27°C° 0 mm 3 mps 754 mmHg 91%
    10:00 -27°C° 0 mm 4 mps 755 mmHg 91%
    11:00 -25°C° 0 mm 4 mps 755 mmHg 92%
    12:00 -25°C° 0 mm 4 mps 755 mmHg 92%
    13:00 -25°C° 0 mm 4 mps 755 mmHg 92%
    14:00 -24°C° 0 mm 4 mps 755 mmHg 92%
    15:00 -24°C° 0 mm 3 mps 755 mmHg 93%
    16:00 -24°C° 0 mm 3 mps 755 mmHg 93%
    17:00 -25°C° 0 mm 3 mps 755 mmHg 94%
    18:00 -25°C° 0 mm 3 mps 755 mmHg 93%
    19:00 -27°C° 0 mm 4 mps 755 mmHg 93%
    20:00 -27°C° 0 mm 4 mps 754 mmHg 93%
    21:00 -27°C° 0 mm 4 mps 754 mmHg 91%
    22:00 -27°C° 0 mm 4 mps 754 mmHg 90%
    23:00 -29°C° 0 mm 4 mps 754 mmHg 88%

    Tomorrow, 21 January, Tuesday

    Time Temperature Precipitation Wind Pressure Humidity
    00:00 -29°C° 0 mm 4 mps 754 mmHg 88%
    01:00 -29°C° 0 mm 4 mps 753 mmHg 87%
    02:00 -29°C° 0 mm 4 mps 753 mmHg 87%
    03:00 -30°C° 0 mm 4 mps 753 mmHg 88%
    04:00 -30°C° 0 mm 4 mps 753 mmHg 88%
    05:00 -31°C° 0 mm 4 mps 753 mmHg 89%
    06:00 -30°C° 0 mm 3 mps 753 mmHg 89%
    07:00 -30°C° 0 mm 3 mps 753 mmHg 89%
    08:00 -30°C° 0 mm 3 mps 752 mmHg 89%
    09:00 -29°C° 0 mm 3 mps 752 mmHg 89%
    10:00 -26°C° 0 mm 3 mps 753 mmHg 88%
    11:00 -25°C° 0 mm 3 mps 753 mmHg 87%
    12:00 -24°C° 0 mm 2 mps 753 mmHg 88%
    13:00 -23°C° 0 mm 2 mps 753 mmHg 88%
    14:00 -21°C° 0 mm 2 mps 753 mmHg 89%
    15:00 -23°C° 0 mm 2 mps 753 mmHg 90%
    16:00 -24°C° 0 mm 2 mps 753 mmHg 91%
    17:00 -25°C° 0 mm 2 mps 753 mmHg 92%
    18:00 -23°C° 0 mm 1 mps 753 mmHg 91%
    19:00 -23°C° 0 mm 1 mps 753 mmHg 91%
    20:00 -23°C° 0 mm 1 mps 754 mmHg 90%
    21:00 -23°C° 0 mm 1 mps 754 mmHg 89%
    22:00 -23°C° 0 mm 1 mps 754 mmHg 89%
    23:00 -23°C° 0 mm 1 mps 754 mmHg 89%

    Day after tomorrow, 22 January, Wednesday

    Time Temperature Precipitation Wind Pressure Humidity
    00:00 -23°C° 0 mm 1 mps 754 mmHg 88%
    01:00 -23°C° 0 mm 1 mps 754 mmHg 88%
    02:00 -23°C° 0 mm 1 mps 754 mmHg 87%
    03:00 -24°C° 0 mm 1 mps 754 mmHg 87%
    04:00 -24°C° 0 mm 1 mps 754 mmHg 87%
    05:00 -27°C° 0 mm 2 mps 754 mmHg 87%
    06:00 -27°C° 0 mm 2 mps 754 mmHg 86%
    07:00 -27°C° 0 mm 2 mps 753 mmHg 85%
    08:00 -27°C° 0 mm 2 mps 753 mmHg 84%
    09:00 -25°C° 0 mm 2 mps 753 mmHg 87%
    10:00 -24°C° 0 mm 2 mps 752 mmHg 89%
    11:00 -23°C° 0 mm 3 mps 752 mmHg 91%
    12:00 -22°C° 0 mm 3 mps 751 mmHg 92%
    13:00 -21°C° 0 mm 3 mps 750 mmHg 94%
    14:00 -19°C° 0 mm 2 mps 750 mmHg 95%
    15:00 -19°C° 0.1 mm 3 mps 749 mmHg 95%
    16:00 -19°C° 0.1 mm 3 mps 749 mmHg 94%
    17:00 -18°C° 0.1 mm 3 mps 749 mmHg 94%
    18:00 -17°C° 0 mm 3 mps 749 mmHg 94%
    19:00 -17°C° 0 mm 3 mps 748 mmHg 95%
    20:00 -15°C° 0 mm 2 mps 748 mmHg 95%
    21:00 -16°C° 0 mm 3 mps 748 mmHg 94%
    22:00 -15°C° 0 mm 3 mps 748 mmHg 94%
    23:00 -15°C° 0 mm 3 mps 748 mmHg 93%

    23 January, Thursday

    Time Temperature Precipitation Wind Pressure Humidity
    00:00 -15°C° 0 mm 3 mps 748 mmHg 93%
    01:00 -14°C° 0 mm 3 mps 748 mmHg 92%
    02:00 -15°C° 0 mm 4 mps 747 mmHg 92%
    03:00 -15°C° 0 mm 4 mps 747 mmHg 92%
    04:00 -15°C° 0 mm 4 mps 747 mmHg 91%
    05:00 -14°C° 0 mm 4 mps 747 mmHg 91%
    06:00 -14°C° 0 mm 4 mps 747 mmHg 91%
    07:00 -12°C° 0 mm 4 mps 746 mmHg 91%
    08:00 -13°C° 0 mm 5 mps 746 mmHg 91%
    09:00 -12°C° 0.1 mm 5 mps 746 mmHg 91%
    10:00 -12°C° 0.1 mm 5 mps 746 mmHg 91%
    11:00 -12°C° 0.1 mm 5 mps 746 mmHg 90%
    12:00 -11°C° 0.1 mm 5 mps 745 mmHg 90%
    13:00 -10°C° 0.1 mm 5 mps 745 mmHg 90%
    14:00 -10°C° 0.1 mm 5 mps 745 mmHg 89%
    15:00 -10°C° 0.1 mm 5 mps 745 mmHg 90%
    16:00 -8°C° 0.1 mm 5 mps 744 mmHg 90%
    17:00 -8°C° 0.1 mm 5 mps 744 mmHg 91%
    18:00 -8°C° 0.1 mm 5 mps 744 mmHg 91%
    19:00 -7°C° 0.1 mm 5 mps 743 mmHg 92%
    20:00 -8°C° 0.1 mm 6 mps 743 mmHg 92%
    21:00 -6°C° 0.2 mm 6 mps 742 mmHg 92%
    22:00 -6°C° 0.2 mm 6 mps 742 mmHg 92%
    23:00 -5°C° 0.2 mm 6 mps 742 mmHg 93%

    24 January, Friday

    Time Temperature Precipitation Wind Pressure Humidity
    00:00 -5°C° 0.3 mm 6 mps 742 mmHg 93%
    01:00 -5°C° 0.3 mm 6 mps 742 mmHg 94%
    02:00 -5°C° 0.3 mm 6 mps 742 mmHg 94%
    03:00 -4°C° 0.2 mm 5 mps 742 mmHg 94%
    04:00 -4°C° 0.2 mm 5 mps 742 mmHg 93%
    05:00 -4°C° 0.2 mm 5 mps 742 mmHg 93%
    06:00 -4°C° 0.1 mm 5 mps 742 mmHg 93%
    07:00 -4°C° 0.1 mm 5 mps 742 mmHg 93%
    08:00 -3°C° 0.1 mm 4 mps 743 mmHg 94%
    09:00 -3°C° 0.4 mm 4 mps 743 mmHg 94%
    10:00 -3°C° 0.4 mm 4 mps 743 mmHg 95%
    11:00 -2°C° 0.4 mm 4 mps 743 mmHg 95%
    12:00 -2°C° 0.3 mm 5 mps 743 mmHg 95%
    13:00 -2°C° 0.3 mm 5 mps 742 mmHg 95%
    14:00 -2°C° 0.3 mm 5 mps 742 mmHg 95%
    15:00 -4°C° 0.2 mm 5 mps 742 mmHg 94%
    16:00 -4°C° 0.2 mm 6 mps 742 mmHg 92%
    17:00 -5°C° 0.2 mm 6 mps 742 mmHg 90%
    18:00 -5°C° 0 mm 6 mps 742 mmHg 90%
    19:00 -5°C° 0 mm 6 mps 742 mmHg 90%
    20:00 -4°C° 0 mm 5 mps 742 mmHg 90%
    21:00 -5°C° 0.2 mm 5 mps 742 mmHg 91%
    22:00 -5°C° 0.2 mm 5 mps 742 mmHg 93%
    23:00 -4°C° 0.2 mm 4 mps 743 mmHg 94%

    25 January, Saturday

    Time Temperature Precipitation Wind Pressure Humidity
    00:00 -4°C° 0.2 mm 3 mps 743 mmHg 94%
    01:00 -5°C° 0.2 mm 3 mps 743 mmHg 94%
    02:00 -5°C° 0.2 mm 2 mps 743 mmHg 93%
    03:00 -5°C° 0.1 mm 2 mps 743 mmHg 94%
    04:00 -5°C° 0.1 mm 2 mps 743 mmHg 95%
    05:00 -5°C° 0.1 mm 2 mps 743 mmHg 96%
    06:00 -5°C° 0.2 mm 2 mps 743 mmHg 95%
    07:00 -5°C° 0.2 mm 2 mps 743 mmHg 95%
    08:00 -5°C° 0.2 mm 2 mps 743 mmHg 95%
    09:00 -5°C° 0 mm 2 mps 743 mmHg 93%
    10:00 -7°C° 0 mm 3 mps 743 mmHg 90%
    11:00 -7°C° 0 mm 3 mps 743 mmHg 88%
    12:00 -7°C° 0 mm 3 mps 743 mmHg 88%
    13:00 -8°C° 0 mm 3 mps 743 mmHg 88%
    14:00 -7°C° 0 mm 2 mps 744 mmHg 89%
    15:00 -9°C° 0 mm 2 mps 744 mmHg 90%
    16:00 -10°C° 0 mm 2 mps 744 mmHg 92%
    17:00 -13°C° 0 mm 2 mps 744 mmHg 94%
    18:00 -14°C° 0 mm 3 mps 745 mmHg 93%
    19:00 -15°C° 0 mm 3 mps 745 mmHg 93%
    20:00 -15°C° 0 mm 3 mps 746 mmHg 92%
    21:00 -16°C° 0 mm 3 mps 746 mmHg 92%
    22:00 -17°C° 0 mm 3 mps 747 mmHg 93%
    23:00 -17°C° 0 mm 3 mps 747 mmHg 93%
    Show more